User: anonymous   Login
Location: Winthrop
(48.4780°N, 120.1850°W)
Time: 10:46:53
(UTC-07:00)
Language:

ESTCUBE 1 - Orbit

View from above orbital plane
View from above orbital plane
View from above satellite
View from above satellite

Ground track
Ground track

The orbit data is extracted from the following two-line orbital elements,

1 39161U 13021C   22136.49405538  .00001043  00000-0  17034-3 0  9995
2 39161  97.9072 214.5608 0009643 156.6790 203.4867 14.72872974484768
Epoch (UTC): 16 May 2022 11:51:26
Eccentricity: 0.0009643
inclination: 97.9072°
perigee height: 645 km
apogee height: 658 km
right ascension of ascending node: 214.5608°
argument of perigee: 156.6790°
revolutions per day: 14.72872974
mean anomaly at epoch: 203.4867°
orbit number at epoch: 48476

The dashed part of the orbit path shows where the satellite is in the earth's shadow,  

DLR